Observations for Trim Patrick St
| Time | AQI | Temp °C | Hum % | Pres Pa | CO μg/m³ | H₂S μg/m³ | NO μg/m³ | NO₂ μg/m³ | O₃ μg/m³ | SO₂ μg/m³ | PM1 μg/m³ | PM2.5 μg/m³ | PM10 μg/m³ |
|---|---|---|---|---|---|---|---|---|---|---|---|---|---|
| Wednesday 5 August 2026 | |||||||||||||
| 09:24 | 2 | 17.6 | 64 | 100,995 | 0.09 | 0 | 2.85 | 4.26 | 56.08 | 0 | 2 | 5.55 | 6.1 |
| 09:23 | 2 | 17.6 | 65 | 102,680 | 0.08 | 0 | 2.8 | 4.68 | 57.11 | 0 | 2 | 5.49 | 6.03 |
| 09:22 | 2 | 17.6 | 64 | 103,805 | 0.1 | 0 | 3.12 | 4.15 | 55.5 | 0 | 2.86 | 6.26 | 6.89 |
| 09:21 | 2 | 17.6 | 64 | 105,292 | 0.12 | 0 | 3.03 | 4.73 | 52.74 | 0 | 2.86 | 6.98 | 7.68 |
| 09:20 | 2 | 17.6 | 64 | 106,390 | 0.11 | 0 | 3.04 | 4.79 | 57.67 | 0 | 2.86 | 6.98 | 7.68 |
| 09:19 | 2 | 17.6 | 64 | 105,691 | 0.1 | 0 | 3.05 | 5.19 | 55.06 | 0 | 2 | 6.97 | 7.67 |
| 09:18 | 2 | 17.6 | 64 | 106,743 | 0.12 | 0 | 2.99 | 4.79 | 54.98 | 0 | 4.57 | 8.44 | 9.29 |
| 09:17 | 2 | 17.6 | 64 | 108,088 | 0.11 | 0 | 2.99 | 4.48 | 56.11 | 0 | 2 | 6.98 | 7.68 |
| 09:16 | 2 | 17.6 | 65 | 109,398 | 0.11 | 0 | 2.87 | 5.48 | 54.87 | 0 | 2.86 | 6.95 | 7.65 |
| 09:15 | 2 | 17.5 | 65 | 110,563 | 0.11 | 0 | 2.86 | 4.86 | 56.28 | 0 | 2.86 | 6.22 | 6.84 |
| 09:14 | 2 | 17.5 | 65 | 112,100 | 0.11 | 0 | 2.79 | 4.23 | 54.36 | 0 | 3.71 | 7.69 | 8.46 |
| 09:13 | 2 | 17.5 | 65 | 113,444 | 0.09 | 0 | 2.73 | 5.13 | 57.17 | 0 | 2 | 6.18 | 6.8 |
| 09:12 | 2 | 17.5 | 65 | 650 | 0.11 | 0 | 2.74 | 5.13 | 55.89 | 0 | 2.86 | 6.2 | 6.82 |
| 09:11 | 2 | 17.5 | 65 | 1,221 | 0.1 | 0 | 2.73 | 4.81 | 54.98 | 0 | 2.86 | 7.66 | 8.43 |
| 09:10 | 2 | 17.4 | 65 | 3,331 | 0.12 | 0 | 2.7 | 5.14 | 55.98 | 0 | 2 | 6.17 | 6.79 |
| 09:09 | 2 | 17.4 | 65 | 4,476 | 0.1 | 0 | 2.74 | 5.13 | 55.78 | 0 | 2.86 | 6.91 | 7.6 |
| 09:08 | 2 | 17.4 | 65 | 6,215 | 0.13 | 0 | 2.8 | 5.13 | 54.04 | 0 | 2.86 | 6.92 | 7.62 |
| 09:07 | 2 | 17.4 | 65 | 9,021 | 0.11 | 0 | 2.88 | 5.2 | 53.61 | 0 | 2 | 6.19 | 6.81 |
| 09:06 | 2 | 17.4 | 65 | 11,130 | 0.11 | 0 | 2.9 | 5.14 | 53.65 | 0 | 2 | 6.17 | 6.79 |
| 09:04 | 2 | 17.3 | 66 | 15,529 | 0.12 | 0 | 2.62 | 6.48 | 48.68 | 0 | 3.71 | 7.58 | 8.34 |